Regional Weather Roundup
Issued by NWS Northern Indiana

Home | Current Version | Previous Version | Text Only | Print | Product List | Glossary Off
Versions: 1 2 3 4 5 6 7 8 9 10 11 12 13 14 15 16 17 18 19 20 21 22 23 24 25 26 27 28 29 30 31 32 33 34 35 36 37 38 39 40 41 42 43 44 45 46 47 48 49 50

000
ASUS43 KIWX 200900
RWRIWX

KIWX WEATHER ROUNDUP
NATIONAL WEATHER SERVICE NORTHERN INDIANA
500 AM EDT MON OCT 20 2014

NOTE: "FAIR" INDICATES FEW OR NO CLOUDS BELOW 12,000 FEET WITH NO
SIGNIFICANT WEATHER AND/OR OBSTRUCTIONS TO VISIBILITY.

* THESE STATIONS ARE NOT UNDER NWS QUALITY CONTROL. THEY ALSO MAY NOT
  REPORT WEATHER SUCH AS PRECIPITATION OR FOG.

INZ001>027-201000-
NORTHERN INDIANA

CITY           SKY/WX    TMP DP  RH WIND       PRES   REMARKS
SOUTH BEND     CLOUDY    50  43  77 SW15      29.87F
GOSHEN         CLOUDY    49  43  80 SW12      29.88F
ANGOLA*        CLOUDY    46  36  66 S7        29.90F
FORT WAYNE     CLOUDY    47  42  83 SW8       29.93F
PERU/GRISSOM   MOCLDY    49  47  92 SW12      29.92F

$$
INZ028>050-201000-
CENTRAL INDIANA

CITY           SKY/WX    TMP DP  RH WIND       PRES   REMARKS
LAFAYETTE      CLOUDY    48  43  82 SW5       29.93F
KOKOMO*        CLOUDY    50  41  71 SW9       29.94F
MUNCIE*        LGT RAIN  49  43  80 SW8       29.96F
INDIANAPOLIS   CLOUDY    48  42  80 S9        29.98F

$$
MIZ043>046-050>051-056>058-064>065-071>073-077>080-201000-
SOUTHWEST LOWER MICHIGAN

CITY           SKY/WX    TMP DP  RH WIND       PRES   REMARKS
BATTLE CREEK   CLOUDY    48  43  82 S13       29.86F
BENTON HARBOR  MOCLDY    48  44  86 S8        29.84F
COLDWATER*     CLOUDY    49  44  84 SW9       29.88F
HILLSDALE*     CLOUDY    47  43  85 S5        29.89F
HOLLAND        MOCLDY    50  47  89 S8        29.82F
GRAND RAPIDS   CLOUDY    50  45  83 SW8       29.82F
KALAMAZOO      CLOUDY    48  44  86 S12       29.85F
STURGIS*       CLOUDY    46  45  93 S8        29.88F
THREE RIVERS*  CLOUDY    48  44  87 S9        29.87F

$$
OHZ001>008-015>018-024>025-201000-
NORTHWEST OHIO

CITY           SKY/WX    TMP DP  RH WIND       PRES   REMARKS
DEFIANCE       CLOUDY    48  42  80 S8        29.93F
FINDLAY        MOCLDY    47  42  83 S8        29.95F
TOLEDO EXPRESS CLOUDY    47  40  76 SW7       29.93F
TOLEDO METCALF MOCLDY    47  39  74 SW10      29.94F
LIMA           CLOUDY    49  41  74 S9        29.96F

$$
AND FOR LAKE MICHIGAN COASTAL AND OPEN LAKE BUOY OBSERVATIONS

STATION/POSITION TEMP    WIND        PRES    VSBY  WAVE
                 AIR SEA DIR/SP/G                  HT/PER
                 (F)     (DEG/KT/KT) (MB)    (MI)  (FT/S)
CALUMET HARBOR    51     200/ 10/ 14 1009.4F
MICHIGAN CITY     51     170/ 14/ 18   N/A
SAINT JOSEPH      52                 1010.5F
SOUTH LAKE BUOY   55 55  220/ 19/ 25 1009.1F         4/ 6

$$
&&


USA.gov is the U.S. government's official web portal to all federal, state and local government web resources and services.